Location: Cheadle
(51.0146°N, 113.5417°W)
Time: 06:33:18
(UTC+00:00)

BlueWalker 3 - Pass Details

Date: 25 April 2024
Orbit: 481 x 494 km, 53.2° (Epoch: 28 May)

Event Time Altitude Azimuth Distance (km) Brightness Sun altitude
Rises 05:19:02 0° 284° (WNW) 2,577 6.3 -19.4°
Reaches altitude 10° 05:21:13 10° 287° (WNW) 1,696 5.3 -19.6°
Maximum altitude 05:25:02 70° 11° (N) 533 2.1 -19.9°
Enters shadow 05:26:06 44° 80° (E) 697 2.4 -20.0°
